[[{"header":{"parameterUnit":"m.s-1","parameterCategory":1,"la1":30.2991,"la2":30.254,"lo1":-89.0895,"lo2":-89.0444,"dy":0.0017,"dx":0.0017,"nx":28,"ny":28,"refTime":"2024-09-29T21:00:00:Z","depth":0,"parameterNumber":2,"parameterNumberName":"U-component_of_WINDS"},"data":[0,0,0,0,0,0,0,0,0,0,0,0,0,0,0,0,0,0,0,0,0,0,0,0,0,0,0,0,0,0,0,0,0,0,0,0,0,0,0,0,0,0,0,0,0,0,0,0,0,0,0,0,0,0,0,0,0,0,1.0914,1.0915,0,1.1008,1.1009,1.101,1.1043,1.1043,1.1043,1.1042,1.1138,1.1141,1.1143,0,0,0,0,0,0,0,0,0,0,0,0,0,1.0763,1.0766,1.0914,1.0915,1.0916,1.1008,1.1009,1.101,1.1043,1.1043,1.1043,1.1042,1.1137,1.114,1.1144,0,0,0,0,0,0,0,0,0,0,0,0,0,1.084,1.0767,1.0914,1.0944,1.0947,1.1007,1.1009,1.1011,1.1044,1.1043,1.1043,1.1042,1.1136,1.114,1.1144,1.1181,0,0,1.1157,1.1159,0,0,0,0,0,0,0,0,1.0836,1.0846,1.0938,1.0942,1.0946,1.1013,1.0991,1.1068,1.1044,1.1007,1.1042,1.1042,1.1097,1.1104,1.1123,1.1185,1.1189,1.1158,1.116,1.1162,1.1163,0,0,0,0,0,0,0,1.083,1.0842,1.0951,1.094,1.0944,1.0953,1.0963,1.1006,1.1054,1.101,1.1013,1.1024,1.1099,1.1119,1.1125,1.1191,1.1157,1.1161,1.1164,1.1166,1.1288,1.1289,0,0,0,0,0,0,1.082,1.0837,1.0948,1.0954,1.0889,1.0956,1.0967,1.0992,1.1053,1.1062,1.1024,1.1025,1.1112,1.112,1.1129,1.1176,1.1162,1.1166,1.1168,1.1288,1.1289,1.1289,0,0,0,0,0,0,1.0817,1.083,1.0944,1.0896,1.0911,1.0959,1.0987,1.0994,1.1014,1.1064,1.1072,1.1035,1.1112,1.1123,1.1168,1.118,1.1168,1.1172,1.1287,1.1288,1.1289,1.127,0,0,0,0,0,0,1.0812,1.0828,1.0842,1.0896,1.0914,1.0981,1.0987,1.0997,1.1022,1.1024,1.1077,1.1085,1.1112,1.1161,1.1172,1.1185,1.1175,1.1286,1.1287,1.1289,1.127,1.127,1.1271,0,0,0,0,0,1.0807,1.0833,1.0843,1.0856,1.0933,1.0982,1.0992,1.1023,1.1022,1.1037,1.1069,1.1083,1.1177,1.1166,1.1178,1.1193,1.1285,1.1287,1.1289,1.127,1.127,1.1271,0,0,0,0,0,0,1.0778,1.084,1.0852,1.0897,1.0934,1.0987,1.1007,1.1022,1.106,1.106,1.1097,1.1109,1.1151,1.1177,1.1163,1.1232,1.1232,1.1236,1.1213,1.1214,1.1215,1.1207,1.1179,0,0,0,0,0,1.0777,1.0812,1.0865,1.0899,1.0917,1.0959,1.0981,1.1002,1.1042,1.1058,1.1093,1.1131,1.1169,1.1193,1.1231,1.1274,1.1286,1.1291,1.1291,1.1291,1.1294,1.1319,1.1322,1.1295,1.1295,1.1295,0,0,1.0775,1.0814,1.0834,1.0894,1.0926,1.0961,1.0972,1.1008,1.1035,1.1063,1.1108,1.1135,1.118,1.1224,1.1246,1.1247,1.1304,1.1293,1.1293,1.1296,1.1321,1.1324,1.1326,1.1296,1.1295,1.1295,0,0,1.079,1.0823,1.0855,1.0886,1.0934,1.0962,1.0969,1.1021,1.1041,1.1086,1.1108,1.1141,1.1205,1.1237,1.1261,1.1289,1.1304,1.1301,1.1303,1.1327,1.1329,1.1331,1.1341,1.1344,1.1303,1.1303,1.1303,0,1.0781,1.0836,1.0869,1.0906,1.0932,1.096,1.0993,1.1022,1.1079,1.1096,1.1097,1.118,1.1212,1.1264,1.1271,1.129,1.13,1.1294,1.1326,1.1328,1.1331,1.1341,1.1344,1.1303,1.1303,1.1303,1.1303,0,1.0823,1.0861,1.0881,1.0936,1.0965,1.0999,1.1038,1.1063,1.1082,1.111,1.1156,1.1196,1.1243,1.1257,1.1275,1.1312,1.1311,1.1319,1.1319,1.1332,1.1342,1.1346,1.1302,1.1302,1.1302,1.1302,0,0,1.0821,1.0896,1.0902,1.0928,1.0983,1.1013,1.1049,1.1095,1.1116,1.1155,1.1186,1.1241,1.1248,1.1276,1.1298,1.1319,1.1339,1.1324,1.1326,1.1325,1.1383,1.1376,1.138,1.135,1.1351,1.1351,1.1379,0,1.0843,1.0908,1.094,1.0992,1.1027,1.1055,1.1086,1.1124,1.1151,1.1185,1.1215,1.1253,1.126,1.1277,1.13,1.1332,1.1351,1.1331,1.1379,1.138,1.1366,1.1385,1.1379,1.1402,1.1383,1.1383,1.1384,0,1.0876,1.0916,1.0971,1.1023,1.1039,1.1066,1.1112,1.1144,1.1187,1.1206,1.1237,1.1259,1.1298,1.1297,1.1352,1.1337,1.1359,1.1378,1.138,1.1385,1.1382,1.139,1.1411,1.1414,1.139,1.139,1.1389,0,1.0869,1.0936,1.0978,1.0999,1.1061,1.108,1.1106,1.1149,1.1175,1.1215,1.1232,1.1275,1.1299,1.1332,1.1366,1.1362,1.1417,1.1419,1.1434,1.1433,1.1443,1.1442,1.1466,1.1458,1.1458,1.1458,1.1458,0,1.0889,1.0922,1.0976,1.1001,1.1039,1.1076,1.1112,1.1141,1.1179,1.121,1.1237,1.1267,1.1309,1.1344,1.137,1.1412,1.1422,1.1438,1.1445,1.1435,1.1433,1.145,1.1449,1.1459,1.1459,1.1459,1.1458,0,1.0887,1.0925,1.0972,1.1027,1.1042,1.1067,1.1114,1.114,1.1169,1.1209,1.1221,1.1266,1.1309,1.1346,1.1401,1.1419,1.1462,1.147,1.1447,1.145,1.1463,1.1461,1.1498,1.1505,1.1492,1.1492,1.1492,0,1.0897,1.0923,1.0981,1.1005,1.1031,1.1069,1.1096,1.1133,1.116,1.1212,1.1232,1.1276,1.1313,1.138,1.1418,1.1461,1.147,1.1481,1.1477,1.1467,1.147,1.1468,1.1471,1.148,1.148,1.148,1.148,0,1.0912,1.0929,1.0967,1.1012,1.1043,1.108,1.1118,1.1135,1.118,1.1209,1.1253,1.1282,1.134,1.1383,1.1431,1.1458,1.1477,1.1481,1.1487,1.1477,1.1463,1.1471,1.1446,1.148,1.148,1.148,1.148,1.148,1.0916,1.0941,1.0986,1.1027,1.106,1.1094,1.1122,1.1155,1.1192,1.1242,1.1262,1.1307,1.135,1.1416,1.1444,1.1479,1.1482,1.149,1.1492,1.1494,1.1492,1.1458,1.1488,1.1488,1.1488,1.1488,1.1488,0,1.0931,1.0962,1.1,1.1052,1.1085,1.11,1.1143,1.1169,1.1208,1.1248,1.1284,1.1335,1.1378,1.142,1.1465,1.1485,1.1495,1.1496,1.1495,1.1501,1.1487,1.1477,1.1488,1.1488,1.1488,1.1488,1.1488,1.1488,1.0943,1.0986,1.1009,1.1068,1.1098,1.1142,1.1166,1.1198,1.1229,1.1285,1.1321,1.1348,1.1389,1.1437,1.1477,1.1489,1.1504,1.1502,1.1516,1.1502,1.1502,1.1501,1.1492,1.1506,1.1506,1.1527,1.1527,1.1527]},{"header":{"parameterUnit":"m.s-1","parameterCategory":1,"la1":30.2991,"la2":30.254,"lo1":-89.0895,"lo2":-89.0444,"dy":0.0017,"dx":0.0017,"nx":28,"ny":28,"refTime":"2024-09-29T21:00:00:Z","depth":0,"parameterNumber":3,"parameterNumberName":"V-component_of_WINDS"},"data":[0,0,0,0,0,0,0,0,0,0,0,0,0,0,0,0,0,0,0,0,0,0,0,0,0,0,0,0,0,0,0,0,0,0,0,0,0,0,0,0,0,0,0,0,0,0,0,0,0,0,0,0,0,0,0,0,0,0,2.5533,2.5533,0,2.5559,2.5559,2.5559,2.5555,2.5554,2.5554,2.5554,2.5576,2.5577,2.5578,0,0,0,0,0,0,0,0,0,0,0,0,0,2.5476,2.5477,2.5533,2.5533,2.5534,2.5559,2.5559,2.5559,2.5555,2.5554,2.5554,2.5553,2.5576,2.5577,2.5579,0,0,0,0,0,0,0,0,0,0,0,0,0,2.5501,2.5478,2.5533,2.5535,2.5535,2.5559,2.5559,2.5559,2.5555,2.5554,2.5554,2.5553,2.5576,2.5577,2.5579,2.5601,0,0,2.5583,2.5584,0,0,0,0,0,0,0,0,2.55,2.5503,2.5534,2.5535,2.5535,2.5553,2.5547,2.5573,2.5555,2.5547,2.5554,2.5553,2.5569,2.5571,2.5577,2.5602,2.5603,2.5583,2.5584,2.5585,2.5586,0,0,0,0,0,0,0,2.5498,2.5502,2.5543,2.5534,2.5535,2.5533,2.5536,2.5552,2.5561,2.5548,2.5548,2.5551,2.5569,2.5576,2.5578,2.5604,2.5583,2.5585,2.5586,2.5586,2.5647,2.5648,0,0,0,0,0,0,2.5496,2.5501,2.5542,2.5544,2.5516,2.5534,2.5537,2.5548,2.5561,2.5563,2.5552,2.5551,2.5573,2.5576,2.5578,2.5604,2.5585,2.5586,2.5587,2.5646,2.5647,2.5648,0,0,0,0,0,0,2.5495,2.55,2.5541,2.5522,2.5527,2.5536,2.5548,2.5549,2.5555,2.5564,2.5565,2.5557,2.5573,2.5576,2.5595,2.5605,2.5587,2.5589,2.5645,2.5647,2.5647,2.5657,0,0,0,0,0,0,2.5494,2.55,2.5509,2.5523,2.5528,2.5559,2.5548,2.555,2.5558,2.5558,2.5569,2.5571,2.5573,2.5593,2.5597,2.5607,2.559,2.5645,2.5646,2.5647,2.5656,2.5659,2.5661,0,0,0,0,0,2.5492,2.5511,2.551,2.5515,2.5541,2.556,2.5563,2.5566,2.5559,2.5568,2.5574,2.557,2.5604,2.5595,2.5599,2.561,2.5644,2.5646,2.5647,2.5655,2.5658,2.5661,0,0,0,0,0,0,2.5497,2.5513,2.5512,2.5536,2.5547,2.5559,2.557,2.5569,2.5581,2.558,2.5582,2.5585,2.5604,2.5609,2.5599,2.5632,2.5623,2.5625,2.5628,2.563,2.5633,2.563,2.5591,0,0,0,0,0,2.5502,2.5517,2.5529,2.5549,2.5555,2.5562,2.557,2.5572,2.5582,2.5586,2.5593,2.5603,2.5615,2.5623,2.5635,2.5657,2.5659,2.5667,2.5669,2.5671,2.5672,2.5683,2.5686,2.5653,2.5653,2.5653,0,0,2.551,2.5521,2.553,2.5551,2.5559,2.5573,2.5565,2.5581,2.5591,2.5588,2.5607,2.5612,2.5623,2.5643,2.5652,2.5648,2.5682,2.5673,2.5674,2.5675,2.5685,2.5688,2.5691,2.5654,2.5654,2.5654,0,0,2.5533,2.5543,2.556,2.5569,2.5582,2.5587,2.5591,2.5603,2.5607,2.5626,2.5624,2.5635,2.5657,2.5665,2.5671,2.5696,2.5693,2.57,2.5711,2.5722,2.5724,2.5726,2.5734,2.5737,2.5702,2.5702,2.5702,0,2.5542,2.5565,2.5569,2.5585,2.5593,2.5593,2.5609,2.5617,2.5633,2.5638,2.5633,2.566,2.5668,2.5689,2.5695,2.5701,2.5704,2.5698,2.5724,2.5726,2.5728,2.5735,2.5738,2.5703,2.5703,2.5703,2.5703,0,2.5574,2.5589,2.5601,2.5618,2.5628,2.5644,2.5649,2.5659,2.5659,2.5664,2.5682,2.5691,2.5704,2.571,2.571,2.5731,2.5727,2.5723,2.5714,2.5732,2.5738,2.5741,2.5704,2.5703,2.5703,2.5703,0,0,2.56,2.5619,2.5623,2.563,2.5644,2.5656,2.5671,2.5685,2.5692,2.5704,2.5715,2.5734,2.573,2.5737,2.5739,2.5748,2.5765,2.5742,2.5743,2.5745,2.5787,2.5789,2.5792,2.5764,2.5764,2.5765,2.5785,0,2.5623,2.5651,2.5656,2.568,2.5694,2.5693,2.5706,2.5715,2.572,2.5731,2.5736,2.5748,2.5743,2.5747,2.5757,2.5761,2.5773,2.576,2.5773,2.5774,2.5769,2.5796,2.5798,2.5817,2.5788,2.5788,2.5789,0,2.5653,2.5666,2.5692,2.5703,2.5709,2.5721,2.5734,2.5745,2.5755,2.5758,2.5766,2.5766,2.5781,2.5772,2.5791,2.5782,2.5788,2.5791,2.5791,2.5792,2.5781,2.5795,2.5823,2.5825,2.5793,2.5793,2.5793,0,2.5668,2.5691,2.5709,2.5716,2.573,2.5738,2.5744,2.5754,2.5762,2.5773,2.5778,2.579,2.5796,2.5805,2.5807,2.5801,2.5826,2.5818,2.5827,2.5827,2.5831,2.583,2.5859,2.5837,2.5837,2.5837,2.5837,0,2.5692,2.5707,2.5716,2.5727,2.5744,2.5748,2.5765,2.577,2.5779,2.579,2.579,2.58,2.5804,2.5815,2.5817,2.5831,2.5835,2.5836,2.5836,2.5835,2.5835,2.5838,2.5836,2.5838,2.5838,2.5838,2.5837,0,2.571,2.5717,2.5737,2.5749,2.5753,2.5764,2.5774,2.5784,2.5789,2.5803,2.5806,2.5813,2.5825,2.5829,2.5844,2.5846,2.5862,2.5862,2.5859,2.5858,2.5867,2.5866,2.5897,2.5901,2.5878,2.5878,2.5879,0,2.5724,2.5736,2.575,2.5758,2.5765,2.5778,2.5786,2.5791,2.5799,2.5811,2.5819,2.5832,2.5842,2.5861,2.5866,2.5877,2.5876,2.5887,2.5878,2.5876,2.5875,2.5873,2.5874,2.5888,2.5888,2.5888,2.5888,0,2.5748,2.5751,2.5763,2.5777,2.5787,2.5797,2.5807,2.5813,2.5819,2.5828,2.5841,2.5849,2.5865,2.5876,2.5887,2.5892,2.5891,2.5892,2.5894,2.5892,2.589,2.589,2.5862,2.589,2.589,2.589,2.589,2.589,2.5764,2.5774,2.5785,2.5799,2.5807,2.5816,2.5826,2.5832,2.5844,2.5857,2.5859,2.5872,2.5881,2.5896,2.5902,2.5912,2.5909,2.5913,2.5913,2.5914,2.5914,2.5889,2.5914,2.5914,2.5914,2.5914,2.5914,0,2.5786,2.5794,2.5806,2.5821,2.5831,2.583,2.5841,2.5849,2.5862,2.5871,2.5881,2.5895,2.5907,2.5913,2.5924,2.5931,2.593,2.5933,2.5932,2.5933,2.5917,2.5913,2.5933,2.5933,2.5933,2.5933,2.5933,2.5933,2.5799,2.5816,2.582,2.5841,2.5848,2.5862,2.5868,2.5876,2.5883,2.5899,2.5909,2.5914,2.5922,2.5933,2.5943,2.5945,2.5948,2.5951,2.5952,2.5936,2.5934,2.5932,2.5929,2.5952,2.5952,2.5968,2.5968,2.5968]}]]